KA8UPW-1 Weather Reports


time (UTC)temp
C
wind
direction
speed
KPH
gust
KPH
rain 1hr
cm
rain 24hr
cm
rain mn
cm
humidity
%
barometer
mb
20260505140220 17 0 0.0 0.0 0.00 0.08 0.08 72 1005.1
20260505124503 15 0 0.0 0.0 0.00 0.08 0.08 80 1004.7
20260505123817 15 0 0.0 0.0 0.00 0.08 0.08 81 1004.7
20260505122704 15 0 0.0 0.0 0.00 0.08 0.08 82 1004.7
20260505121803 14 0 0.0 0.0 0.00 0.08 0.08 82 1004.5
20260505120903 14 0 0.0 0.0 0.00 0.08 0.08 81 1004.5
20260505120004 15 0 0.0 0.0 0.00 0.08 0.08 81 1004.4
20260505115618 15 0 0.0 0.0 0.00 0.08 0.08 80 1004.4
20260505114504 15 0 0.0 0.0 0.00 0.08 0.08 80 1004.1
20260505113603 14 0 0.0 0.0 0.00 0.08 0.08 81 1003.5
20260505112703 14 0 0.0 0.0 0.00 0.08 0.08 81 1003.0
20260505111803 14 0 0.0 0.0 0.00 0.08 0.08 82 1002.7
20260505110904 14 0 0.0 0.0 0.03 0.08 0.08 82 1002.7
20260505101805 14 0 0.0 0.0 0.05 0.08 0.08 82 1003.7
20260505100903 15 0 0.0 0.0 0.03 0.05 0.05 80 1003.7
20260505100218 15 0 0.0 0.0 0.00 0.03 0.03 77 1003.7
20260505095403 16 0 0.0 0.0 0.00 0.03 0.03 74 1003.7
20260505094504 16 0 0.0 0.0 0.00 0.03 0.03 74 1003.6
20260505093603 16 0 0.0 0.0 0.00 0.03 0.03 74 1003.5
20260505092704 16 0 0.0 0.0 0.00 0.03 0.03 74 1003.7
20260505091803 16 0 0.0 0.0 0.00 0.03 0.03 73 1003.7
20260505090903 16 0 0.0 0.0 0.00 0.03 0.03 72 1003.6
20260505090004 16 0 0.0 0.0 0.00 0.03 0.03 72 1003.5
20260505085404 16 0 0.0 0.0 0.00 0.03 0.03 71 1003.6
20260505084503 17 0 0.0 0.0 0.00 0.03 0.03 71 1003.2
20260505083604 17 0 0.0 0.0 0.00 0.03 0.03 70 1003.1
20260505082704 17 0 0.0 0.0 0.00 0.03 0.03 70 1002.9
20260505081803 17 0 0.0 0.0 0.00 0.03 0.03 70 1002.7
20260505080904 17 0 0.0 0.0 0.00 0.03 0.03 69 1002.5
20260505080004 17 0 0.0 0.0 0.03 0.03 0.03 68 1002.4
20260505075403 17 0 0.0 0.0 0.03 0.03 0.03 68 1002.4
20260505074503 18 0 0.0 0.0 0.03 0.03 0.03 67 1002.4
20260505073603 18 0 0.0 0.0 0.03 0.03 0.03 67 1002.3
20260505072918 18 0 0.0 0.0 0.03 0.03 0.03 67 1002.2
20260505071804 17 0 0.0 0.0 0.03 0.03 0.03 71 1001.9
20260505070903 17 0 0.0 0.0 0.03 0.03 0.03 70 1002.0
20260505070005 18 0 0.0 0.0 0.00 0.00 0.00 63 1002.1
20260505065621 19 0 0.0 0.0 0.00 0.00 0.00 62 1002.2
20260505064503 19 0 0.0 0.0 0.00 0.00 0.00 62 1001.9
20260505063821 19 0 0.0 0.0 0.00 0.00 0.00 61 1001.8
20260505062918 19 0 0.0 0.0 0.00 0.00 0.00 61 1001.9
20260505061803 19 0 0.0 0.0 0.00 0.00 0.00 61 1002.0
20260505061118 19 0 0.0 0.0 0.00 0.00 0.00 62 1002.2
20260505060004 19 0 0.0 0.0 0.00 0.00 0.00 62 1002.0
20260505055403 19 0 0.0 0.0 0.00 0.00 0.00 62 1002.2
20260505054719 19 0 0.0 0.0 0.00 0.00 0.00 62 1002.2
20260505053604 19 0 0.0 0.0 0.00 0.00 0.00 62 1002.3
20260505052704 19 0 0.0 0.0 0.00 0.00 0.00 63 1002.4
20260505051804 18 0 0.0 0.0 0.00 0.00 0.00 64 1002.4
20260505050903 18 0 0.0 0.0 0.00 0.00 0.00 65 1002.5
20260505040904 18 0 0.0 0.0 0.00 0.00 0.00 65 1002.8
20260505040222 18 0 0.0 0.0 0.00 0.00 0.00 65 1002.8
20260505035618 18 0 0.0 0.0 0.00 0.00 0.00 65 1002.9
20260505034505 18 0 0.0 0.0 0.00 0.00 0.00 66 1002.8
20260505033604 18 0 0.0 0.0 0.00 0.00 0.00 66 1002.8
20260505032704 18 0 0.0 0.0 0.00 0.00 0.00 66 1002.9
20260505031803 18 0 0.0 0.0 0.00 0.00 0.00 66 1002.9
20260505030903 18 0 0.0 0.0 0.00 0.00 0.00 66 1002.7
20260505030004 18 0 0.0 0.0 0.00 0.00 0.00 66 1002.8
20260505025404 18 0 0.0 0.0 0.00 0.00 0.00 66 1002.8
20260505024721 18 0 0.0 0.0 0.00 0.00 0.00 66 1002.9
20260505023603 18 0 0.0 0.0 0.00 0.00 0.00 66 1003.0
20260505022921 18 0 0.0 0.0 0.00 0.00 0.00 66 1002.9
20260505021803 18 0 0.0 0.0 0.00 0.00 0.00 66 1003.0
20260505020904 18 0 0.0 0.0 0.00 0.00 0.00 66 1002.9
20260505020004 18 0 0.0 0.0 0.00 0.00 0.00 66 1003.0
20260505015404 18 0 0.0 0.0 0.00 0.00 0.00 65 1003.0
20260505014504 18 0 0.0 0.0 0.00 0.00 0.00 66 1002.9
20260505013603 18 0 0.0 0.0 0.00 0.00 0.00 65 1002.8
20260505012708 18 0 0.0 0.0 0.00 0.00 0.00 65 1002.7
20260505011804 18 0 0.0 0.0 0.00 0.00 0.00 64 1002.8
20260505010904 18 0 0.0 0.0 0.00 0.00 0.00 63 1002.8
20260505010004 18 0 0.0 0.0 0.00 0.00 0.00 63 1002.8
20260505005404 19 0 0.0 0.0 0.00 0.00 0.00 62 1002.8
20260505004503 19 0 0.0 0.0 0.00 0.00 0.00 61 1002.8
20260505003603 19 0 0.0 0.0 0.00 0.00 0.00 61 1002.7
20260505002922 19 0 0.0 0.0 0.00 0.00 0.00 60 1002.8
20260505001803 20 0 0.0 0.0 0.00 0.00 0.00 60 1002.7
20260505000904 20 0 0.0 0.0 0.00 0.00 0.00 60 1002.6
20260505000004 20 0 0.0 0.0 0.00 0.00 0.00 58 1002.5
20260504235620 20 0 0.0 0.0 0.00 0.00 0.00 58 1002.6
20260504234504 20 0 0.0 0.0 0.00 0.00 0.00 55 1002.4
20260504233603 21 0 0.0 0.0 0.00 0.00 0.00 54 1002.3
20260504232703 21 0 0.0 0.0 0.00 0.00 0.00 53 1002.0
20260504231803 21 0 0.0 0.0 0.00 0.00 0.00 52 1002.1
20260504231117 21 0 0.0 0.0 0.00 0.00 0.00 51 1002.0
20260504230220 22 0 0.0 0.0 0.00 0.00 0.00 50 1002.0
20260504225404 22 0 0.0 0.0 0.00 0.00 0.00 50 1002.2
20260504224504 22 0 0.0 0.0 0.00 0.00 0.00 49 1002.2
20260504223821 22 0 0.0 0.0 0.00 0.00 0.00 49 1002.3
20260504222704 22 0 0.0 0.0 0.00 0.00 0.00 50 1002.3
20260504221803 22 0 0.0 0.0 0.00 0.00 0.00 51 1002.4
20260504220904 22 0 0.0 0.0 0.00 0.00 0.00 52 1002.4
20260504220004 22 0 0.0 0.0 0.00 0.00 0.00 51 1002.4
20260504215622 22 0 0.0 0.0 0.00 0.00 0.00 52 1002.4
20260504214503 22 0 0.0 0.0 0.00 0.00 0.00 52 1002.4
20260504213604 22 0 0.0 0.0 0.00 0.00 0.00 53 1002.6
20260504212703 22 0 0.0 0.0 0.00 0.00 0.00 52 1002.7
20260504211803 22 0 0.0 0.0 0.00 0.00 0.00 53 1002.6
20260504210903 22 0 0.0 0.0 0.00 0.00 0.00 53 1002.8
20260504210004 22 0 0.0 0.0 0.00 0.00 0.00 54 1002.7
20260504205404 22 0 0.0 0.0 0.00 0.00 0.00 56 1002.6
20260504204503 22 0 0.0 0.0 0.00 0.00 0.00 55 1002.7
20260504203603 22 0 0.0 0.0 0.00 0.00 0.00 54 1002.6
20260504202920 22 0 0.0 0.0 0.00 0.00 0.00 55 1002.7
20260504201804 22 0 0.0 0.0 0.00 0.00 0.00 54 1003.0
20260504200903 22 0 0.0 0.0 0.00 0.00 0.00 56 1002.9
20260504200003 21 0 0.0 0.0 0.00 0.00 0.00 56 1003.1
20260504195403 22 0 0.0 0.0 0.00 0.00 0.00 56 1003.1
20260504194503 22 0 0.0 0.0 0.00 0.00 0.00 55 1003.3
20260504193603 22 0 0.0 0.0 0.00 0.00 0.00 55 1003.4
20260504192704 21 0 0.0 0.0 0.00 0.00 0.00 55 1003.7
20260504191803 21 0 0.0 0.0 0.00 0.00 0.00 55 1003.7
20260504190903 22 0 0.0 0.0 0.00 0.00 0.00 56 1003.7
20260504190005 22 0 0.0 0.0 0.00 0.00 0.00 55 1003.7
20260504185403 21 0 0.0 0.0 0.00 0.00 0.00 55 1003.7
20260504184721 21 0 0.0 0.0 0.00 0.00 0.00 57 1003.9
20260504183603 21 0 0.0 0.0 0.00 0.00 0.00 58 1004.1
20260504182921 21 0 0.0 0.0 0.00 0.00 0.00 58 1004.2
20260504181803 21 0 0.0 0.0 0.00 0.00 0.00 58 1004.4
20260504180903 20 0 0.0 0.0 0.00 0.00 0.00 58 1004.4
20260504180005 20 0 0.0 0.0 0.00 0.00 0.00 60 1004.4
20260504175403 20 0 0.0 0.0 0.00 0.00 0.00 59 1004.5
20260504174505 20 0 0.0 0.0 0.00 0.00 0.00 58 1004.5
20260504173603 20 0 0.0 0.0 0.00 0.00 0.00 61 1004.7
20260504172921 20 0 0.0 0.0 0.00 0.00 0.00 60 1004.8
20260504171804 19 0 0.0 0.0 0.00 0.00 0.00 60 1005.1
20260504170904 19 0 0.0 0.0 0.00 0.00 0.00 61 1005.0
20260504150903 16 0 0.0 0.0 0.00 0.00 0.00 63 1005.9